This is the latest recevied weather packets stored in our database for station/object EA8BQU-10. If no packets are shown the sender has not sent any weather packets the latest 10 day(s).
| Time | Temp. | Humidity | Pressure | Rain* | Wind** | Luminosity | Snow |
|---|---|---|---|---|---|---|---|
| 1787923250 | 24.44° C | 100% | 1021.1 hPa | - | - | - | - |
| 1787922350 | 24.44° C | 100% | 1021.2 hPa | - | - | - | - |
| 1787921450 | 24.44° C | 100% | 1021.2 hPa | - | - | - | - |
| 1787920550 | 23.89° C | 100% | 1021.5 hPa | - | - | - | - |
| 1787919650 | 23.33° C | 100% | 1021.5 hPa | - | - | - | - |
| 1787918748 | 23.33° C | 100% | 1021.8 hPa | - | - | - | - |
| 1787917847 | 23.33° C | 100% | 1021.9 hPa | - | - | - | - |
| 1787916947 | 23.33° C | 100% | 1021.9 hPa | - | - | - | - |
| 1787916046 | 23.33° C | 100% | 1022 hPa | - | - | - | - |
| 1787915167 | 23.33° C | 100% | 1022.1 hPa | - | - | - | - |
| 1787914299 | 23.33° C | 100% | 1021.9 hPa | - | - | - | - |
| 1787914267 | 23.33° C | 100% | 1021.9 hPa | - | - | - | - |
| 1787913404 | 23.33° C | 100% | 1021.8 hPa | - | - | - | - |
| 1787913365 | 23.33° C | 100% | 1021.8 hPa | - | - | - | - |
| 1787912465 | 23.33° C | 100% | 1021.8 hPa | - | - | - | - |
| 1787911565 | 23.33° C | 100% | 1021.7 hPa | - | - | - | - |
| 1787910665 | 22.78° C | 100% | 1021.4 hPa | - | - | - | - |
| 1787909760 | 23.33° C | 100% | 1021.3 hPa | - | - | - | - |
| 1787908857 | 23.33° C | 100% | 1021.1 hPa | - | - | - | - |
| 1787907956 | 23.33° C | 100% | 1021 hPa | - | - | - | - |
| 1787907055 | 23.89° C | 100% | 1020.9 hPa | - | - | - | - |
| 1787906183 | 23.33° C | 100% | 1020.8 hPa | - | - | - | - |
| 1787906150 | 23.33° C | 100% | 1020.8 hPa | - | - | - | - |
| 1787905250 | 23.89° C | 100% | 1020.7 hPa | - | - | - | - |
| 1787904350 | 23.89° C | 100% | 1020.6 hPa | - | - | - | - |
* Rain since midnight (hover to see other rain measurements)
** Current wind speed in m/s (hover to see current wind gust speed)